timestamp,wind_dir_avg,wind_spd_avg,wind_spd_max_dir,wind_spd_gust,battery_voltage,lat,long
2023-08-05 00:04:00+00:00,219.0,7.26,223.0,8.05,12.73,47.59359,-54.27349
2023-08-05 00:14:01+00:00,218.0,6.19,217.0,7.23,12.41,47.59359,-54.27349
2023-08-05 00:24:01+00:00,230.0,5.84,226.0,6.98,12.41,47.59359,-54.27349
2023-08-05 00:34:01+00:00,222.0,4.83,216.0,5.53,12.41,47.59359,-54.27349
2023-08-05 00:44:01+00:00,225.0,4.08,228.0,4.42,12.41,47.59359,-54.27349
2023-08-05 00:54:01+00:00,216.0,3.9,215.0,4.36,12.41,47.59359,-54.27349
2023-08-05 01:04:01+00:00,208.0,3.79,210.0,4.44,12.41,47.59359,-54.27349
2023-08-05 01:14:01+00:00,221.0,4.1,222.0,4.33,12.41,47.59359,-54.27349
2023-08-05 01:24:01+00:00,221.0,3.87,221.0,4.21,12.41,47.59359,-54.27349
2023-08-05 01:34:01+00:00,226.0,3.13,219.0,3.72,12.41,47.59359,-54.27349
2023-08-05 01:44:01+00:00,234.0,3.93,231.0,4.64,12.41,47.59359,-54.27349
2023-08-05 01:54:01+00:00,215.0,3.96,213.0,4.49,12.41,47.59359,-54.27349
2023-08-05 02:04:01+00:00,225.0,4.57,229.0,5.22,12.41,47.59359,-54.27349
2023-08-05 02:14:00+00:00,220.0,5.81,218.0,6.63,12.41,47.59359,-54.27349
2023-08-05 02:24:00+00:00,252.0,5.14,254.0,6.1,12.41,47.59359,-54.27349
2023-08-05 02:34:00+00:00,238.0,4.77,247.0,5.56,12.41,47.59359,-54.27349
2023-08-05 02:44:00+00:00,228.0,4.44,225.0,5.4,12.41,47.59359,-54.27349
2023-08-05 02:54:00+00:00,247.0,4.17,253.0,4.94,12.41,47.59359,-54.27349
2023-08-05 03:04:00+00:00,236.0,4.32,235.0,4.87,12.41,47.59359,-54.27349
2023-08-05 03:14:00+00:00,231.0,3.8,228.0,5.23,12.41,47.59359,-54.27349
2023-08-05 03:24:00+00:00,221.0,4.39,226.0,4.96,12.41,47.59359,-54.27349
2023-08-05 03:34:00+00:00,218.0,4.81,226.0,5.63,12.41,47.59359,-54.27349
2023-08-05 03:44:00+00:00,231.0,4.57,232.0,5.96,12.41,47.59359,-54.27349
2023-08-05 03:54:00+00:00,226.0,5.49,234.0,6.6,12.41,47.59359,-54.27349
2023-08-05 04:04:00+00:00,218.0,6.0,223.0,7.08,12.41,47.59359,-54.27349
2023-08-05 04:14:01+00:00,226.0,6.4,233.0,8.13,12.41,47.59359,-54.27349
2023-08-05 04:24:01+00:00,220.0,5.54,226.0,6.37,12.41,47.59359,-54.27349
2023-08-05 04:34:01+00:00,220.0,5.93,219.0,6.53,12.41,47.59359,-54.27349
2023-08-05 04:44:01+00:00,214.0,5.48,218.0,6.51,12.41,47.59359,-54.27349
2023-08-05 04:54:01+00:00,222.0,5.42,230.0,6.74,12.41,47.59359,-54.27349
2023-08-05 05:04:01+00:00,218.0,5.95,219.0,6.74,12.41,47.59359,-54.27349
2023-08-05 05:14:00+00:00,221.0,6.73,221.0,7.32,12.33,47.59359,-54.27349
2023-08-05 05:24:00+00:00,218.0,6.02,218.0,6.45,12.33,47.59359,-54.27349
2023-08-05 05:34:00+00:00,225.0,5.89,226.0,6.36,12.33,47.59359,-54.27349
2023-08-05 05:44:00+00:00,215.0,6.2,217.0,7.02,12.33,47.59359,-54.27349
2023-08-05 05:54:00+00:00,213.0,5.9,216.0,6.5,12.33,47.59359,-54.27349
2023-08-05 06:04:00+00:00,201.0,5.65,200.0,6.15,12.33,47.59359,-54.27349
2023-08-05 06:14:00+00:00,205.0,5.15,202.0,6.03,12.33,47.59359,-54.27349
2023-08-05 06:24:00+00:00,205.0,5.27,201.0,6.1,12.33,47.59359,-54.27349
2023-08-05 06:34:00+00:00,204.0,5.38,207.0,6.0,12.33,47.59359,-54.27349
2023-08-05 06:44:00+00:00,207.0,5.27,214.0,6.0,12.33,47.59359,-54.27349
2023-08-05 06:54:00+00:00,202.0,5.05,202.0,5.8,12.33,47.59359,-54.27349
2023-08-05 07:04:00+00:00,209.0,5.61,212.0,6.31,12.33,47.59359,-54.27349
2023-08-05 07:14:00+00:00,211.0,5.86,214.0,6.36,12.33,47.59359,-54.27349
2023-08-05 07:24:00+00:00,217.0,4.98,218.0,5.59,12.33,47.59359,-54.27349
2023-08-05 07:34:00+00:00,224.0,5.62,227.0,6.37,12.33,47.59359,-54.27349
2023-08-05 07:44:00+00:00,217.0,4.48,214.0,5.26,12.33,47.59359,-54.27349
2023-08-05 07:54:00+00:00,224.0,4.97,227.0,5.85,12.33,47.59359,-54.27349
2023-08-05 08:04:00+00:00,219.0,5.02,222.0,5.7,12.33,47.59359,-54.27349
2023-08-05 08:14:00+00:00,228.0,3.08,234.0,3.74,12.25,47.59359,-54.27349
2023-08-05 08:24:00+00:00,213.0,4.19,214.0,4.89,12.25,47.59359,-54.27349
2023-08-05 08:34:00+00:00,207.0,5.08,215.0,5.67,12.25,47.59359,-54.27349
2023-08-05 08:44:00+00:00,205.0,5.05,213.0,5.7,12.25,47.59359,-54.27349
2023-08-05 08:54:00+00:00,212.0,4.88,217.0,5.97,12.25,47.59359,-54.27349
2023-08-05 09:04:00+00:00,202.0,4.91,200.0,5.69,12.25,47.59359,-54.27349
2023-08-05 09:14:01+00:00,194.0,5.01,196.0,5.97,12.25,47.59359,-54.27349
2023-08-05 09:24:01+00:00,201.0,4.88,198.0,5.22,12.25,47.59359,-54.27349
2023-08-05 09:34:01+00:00,196.0,5.29,197.0,6.14,12.25,47.59359,-54.27349
2023-08-05 09:44:01+00:00,195.0,4.8,192.0,5.34,12.25,47.59359,-54.27349
2023-08-05 09:54:01+00:00,195.0,4.65,194.0,5.5,12.25,47.59359,-54.27349
2023-08-05 10:04:01+00:00,201.0,4.6,204.0,5.35,12.25,47.59359,-54.27349
2023-08-05 10:14:00+00:00,201.0,4.33,199.0,5.38,12.57,47.59359,-54.27349
2023-08-05 10:24:00+00:00,205.0,4.69,201.0,5.12,12.57,47.59359,-54.27349
2023-08-05 10:34:00+00:00,191.0,3.6,189.0,4.17,12.57,47.59359,-54.27349
2023-08-05 10:44:00+00:00,186.0,4.27,187.0,4.92,12.57,47.59359,-54.27349
2023-08-05 10:54:00+00:00,188.0,3.93,184.0,4.96,12.57,47.59359,-54.27349
2023-08-05 11:04:00+00:00,193.0,3.03,193.0,3.56,12.57,47.59359,-54.27349
2023-08-05 11:14:01+00:00,188.0,4.22,189.0,5.08,13.13,47.59359,-54.27349
2023-08-05 11:24:01+00:00,195.0,2.8,196.0,3.28,13.13,47.59359,-54.27349
2023-08-05 11:34:01+00:00,205.0,1.84,195.0,2.13,13.13,47.59359,-54.27349
2023-08-05 11:44:01+00:00,193.0,3.04,197.0,3.76,13.13,47.59359,-54.27349
2023-08-05 11:54:01+00:00,199.0,4.22,196.0,4.69,13.13,47.59359,-54.27349
2023-08-05 12:04:01+00:00,203.0,2.54,203.0,2.86,13.13,47.59359,-54.27349
2023-08-05 12:14:00+00:00,205.0,2.3,207.0,3.2,13.6,47.59359,-54.27349
2023-08-05 12:24:00+00:00,174.0,2.33,176.0,2.69,13.6,47.59359,-54.27349
2023-08-05 12:34:00+00:00,192.0,3.02,186.0,3.59,13.6,47.59359,-54.27349
2023-08-05 12:44:00+00:00,183.0,2.47,194.0,2.91,13.6,47.59359,-54.27349
2023-08-05 12:54:00+00:00,207.0,2.88,209.0,3.23,13.6,47.59359,-54.27349
2023-08-05 13:04:00+00:00,207.0,2.5,201.0,3.01,13.6,47.59359,-54.27349
2023-08-05 13:14:00+00:00,225.0,2.31,233.0,3.36,13.68,47.59359,-54.27349
2023-08-05 13:24:00+00:00,231.0,1.65,223.0,2.91,13.68,47.59359,-54.27349
2023-08-05 13:34:00+00:00,169.0,2.66,196.0,3.72,13.68,47.59359,-54.27349
2023-08-05 13:44:00+00:00,167.0,2.79,164.0,3.54,13.68,47.59359,-54.27349
2023-08-05 13:54:00+00:00,183.0,2.87,192.0,3.38,13.68,47.59359,-54.27349
2023-08-05 14:04:00+00:00,159.0,1.82,163.0,2.32,13.68,47.59359,-54.27349
2023-08-05 14:14:01+00:00,151.0,1.3,130.0,1.91,14.4,47.59359,-54.27349
2023-08-05 14:24:01+00:00,192.0,2.32,184.0,2.82,14.4,47.59359,-54.27349
2023-08-05 14:34:01+00:00,172.0,1.04,179.0,1.33,14.4,47.59359,-54.27349
2023-08-05 14:44:01+00:00,202.0,2.02,200.0,2.41,14.4,47.59359,-54.27349
2023-08-05 14:54:01+00:00,174.0,1.26,175.0,1.55,14.4,47.59359,-54.27349
2023-08-05 15:04:01+00:00,184.0,2.12,192.0,2.6,14.4,47.59359,-54.27349
2023-08-05 15:14:01+00:00,166.0,2.06,156.0,2.5,13.76,47.59359,-54.27349
2023-08-05 15:24:01+00:00,208.0,3.82,212.0,4.47,13.76,47.59359,-54.27349
2023-08-05 15:34:01+00:00,224.0,4.23,225.0,5.08,13.76,47.59359,-54.27349
2023-08-05 15:44:01+00:00,223.0,2.85,227.0,3.33,13.76,47.59359,-54.27349
2023-08-05 15:54:01+00:00,238.0,2.76,231.0,3.25,13.76,47.59359,-54.27349
2023-08-05 16:04:01+00:00,247.0,2.35,249.0,2.87,13.76,47.59359,-54.27349
2023-08-05 16:14:00+00:00,249.0,2.51,256.0,2.89,14.32,47.59359,-54.27349
2023-08-05 16:24:00+00:00,238.0,3.12,240.0,3.68,14.32,47.59359,-54.27349
2023-08-05 16:34:00+00:00,220.0,4.81,218.0,5.33,14.32,47.59359,-54.27349
2023-08-05 16:44:00+00:00,233.0,4.14,235.0,4.79,14.32,47.59359,-54.27349
2023-08-05 16:54:00+00:00,230.0,3.96,225.0,4.66,14.32,47.59359,-54.27349
2023-08-05 17:04:00+00:00,214.0,3.85,216.0,4.23,14.32,47.59359,-54.27349
2023-08-05 17:14:01+00:00,210.0,4.21,208.0,5.09,14.0,47.59359,-54.27349
2023-08-05 17:24:01+00:00,210.0,5.33,205.0,5.97,14.0,47.59359,-54.27349
2023-08-05 17:34:01+00:00,214.0,4.61,214.0,5.28,14.0,47.59359,-54.27349
2023-08-05 17:44:01+00:00,223.0,5.4,228.0,6.41,14.0,47.59359,-54.27349
2023-08-05 17:54:01+00:00,223.0,5.49,217.0,5.99,14.0,47.59359,-54.27349
2023-08-05 18:04:01+00:00,223.0,4.86,222.0,5.4,14.0,47.59359,-54.27349
2023-08-05 18:14:00+00:00,229.0,4.95,234.0,5.91,13.92,47.59359,-54.27349
2023-08-05 18:24:00+00:00,223.0,5.64,234.0,6.71,13.92,47.59359,-54.27349
2023-08-05 18:34:00+00:00,213.0,5.38,209.0,6.06,13.92,47.59359,-54.27349
2023-08-05 18:44:00+00:00,212.0,6.26,220.0,7.41,13.92,47.59359,-54.27349
2023-08-05 18:54:00+00:00,221.0,6.06,240.0,8.83,13.92,47.59359,-54.27349
2023-08-05 19:04:00+00:00,215.0,6.31,221.0,7.24,13.92,47.59359,-54.27349
2023-08-05 19:14:00+00:00,223.0,6.41,238.0,8.0,13.76,47.59359,-54.27349
2023-08-05 19:24:00+00:00,230.0,9.09,235.0,11.88,13.76,47.59359,-54.27349
2023-08-05 19:34:00+00:00,230.0,8.94,240.0,11.8,13.76,47.59359,-54.27349
2023-08-05 19:44:00+00:00,232.0,10.25,235.0,11.63,13.76,47.59359,-54.27349
2023-08-05 19:54:00+00:00,215.0,5.35,222.0,6.29,13.76,47.59359,-54.27349
2023-08-05 20:04:00+00:00,220.0,6.59,244.0,8.69,13.76,47.59359,-54.27349
2023-08-05 20:14:00+00:00,236.0,8.49,243.0,11.44,13.53,47.59359,-54.27349
2023-08-05 20:24:00+00:00,221.0,6.11,236.0,7.34,13.53,47.59359,-54.27349
2023-08-05 20:34:00+00:00,220.0,6.15,223.0,6.94,13.53,47.59359,-54.27349
2023-08-05 20:44:00+00:00,235.0,7.07,245.0,10.57,13.53,47.59359,-54.27349
2023-08-05 20:54:00+00:00,228.0,6.2,241.0,8.58,13.53,47.59359,-54.27349
2023-08-05 21:04:00+00:00,239.0,9.12,244.0,11.38,13.53,47.59359,-54.27349
2023-08-05 21:14:01+00:00,226.0,6.59,236.0,8.84,13.44,47.59359,-54.27349
2023-08-05 21:24:01+00:00,230.0,8.05,246.0,10.39,13.44,47.59359,-54.27349
2023-08-05 21:34:01+00:00,237.0,10.13,241.0,11.84,13.44,47.59359,-54.27349
2023-08-05 21:44:01+00:00,232.0,7.17,245.0,10.76,13.44,47.59359,-54.27349
2023-08-05 21:54:01+00:00,230.0,6.25,245.0,10.35,13.44,47.59359,-54.27349
2023-08-05 22:04:01+00:00,221.0,4.91,227.0,5.66,13.44,47.59359,-54.27349
2023-08-05 22:14:00+00:00,231.0,5.27,234.0,6.37,13.21,47.59359,-54.27349
2023-08-05 22:24:00+00:00,226.0,6.45,230.0,8.38,13.21,47.59359,-54.27349
2023-08-05 22:34:00+00:00,232.0,5.41,243.0,6.68,13.21,47.59359,-54.27349
2023-08-05 22:44:00+00:00,235.0,7.34,244.0,9.61,13.21,47.59359,-54.27349
2023-08-05 22:54:00+00:00,238.0,6.67,245.0,9.14,13.21,47.59359,-54.27349
2023-08-05 23:04:00+00:00,233.0,7.29,244.0,10.14,13.21,47.59359,-54.27349
2023-08-05 23:14:00+00:00,231.0,7.52,242.0,9.85,12.65,47.59359,-54.27349
2023-08-05 23:24:00+00:00,226.0,9.14,234.0,11.23,12.65,47.59359,-54.27349
2023-08-05 23:34:00+00:00,218.0,5.59,223.0,6.3,12.65,47.59359,-54.27349
2023-08-05 23:44:00+00:00,200.0,5.06,199.0,5.83,12.65,47.59359,-54.27349
2023-08-05 23:54:00+00:00,186.0,4.78,185.0,5.13,12.65,47.59359,-54.27349
